{"data":{"norad_id":68581,"intl_designator":"2026-072J","name":"KUIPER-00234","alt_names":[],"object_type":"PAYLOAD","status":"ACTIVE","operator":null,"country":"US","launch_date":"2026-04-04","launch_site_code":"AFETR","launch_vehicle":null,"mission":null,"orbit_class":"UNKNOWN","rcs_meters":null,"size_class":null,"mass_kg":null,"dimensions":null,"purposes":[],"wikipedia_slug":null,"has_3d_model":false,"image_url":null,"decayed_at":null,"tle_current":{"epoch":"2026-09-19T21:46:00.771168Z","epoch_age_seconds":117638,"freshness":"FRESH","line1":"1 68581U 26072J   26262.90695337 -.00000049  00000+0  22601-4 0  9993","line2":"2 68581  51.9009 131.7864 0001014  98.9682 261.1395 14.79923562 25217","mean_motion":14.79923562,"eccentricity":0.0001014,"inclination_deg":51.9009,"raan_deg":131.7864,"arg_perigee_deg":98.9682,"mean_anomaly_deg":261.1395,"bstar":2.2601e-5,"rev_number":2521,"period_min":97.302322699285,"perigee_km":628.85484173492,"apogee_km":630.27600378625,"semimajor_km":7007.7024227606,"source":"CELESTRAK","updated_at":"2026-09-20T09:00:24.320140Z"}}}